Gadsden, AL

3:21 PM CST on December 12, 2019 (GMT -0600)
Gadsden Municipal

Weather History for KGAD - June, 2019

Change the Weather History Date:

Saturday, June 8, 2019

  Actual Average Record
Temperature  
Mean Temperature 75 °F -  
Max Temperature 82 °F 81 °F 99 °F (1933)
Min Temperature 70 °F 62 °F 48 °F (1944)
Cooling Degree Days 10    
Growing Degree Days 25 (Base 50)    
Moisture  
Dew Point 74 °F    
Average Humidity 93    
Maximum Humidity 100    
Minimum Humidity 76    
Precipitation  
Precipitation 1.15 in - - ()
Sea Level Pressure  
Sea Level Pressure 29.75 in    
Wind  
Wind Speed 3 mph ()    
Max Wind Speed 7 mph    
Max Gust Speed -    
Visibility 7.8 miles    
Events Rain , Thunderstorm    
Averages and records for this station are not official NWS values.
T = Trace of Precipitation, MM = Missing Value Source: Averaged Metar Reports

Daily Weather History Graph

Daily Weather History Graph

Search for Another Location

Airport or City:

Astronomy

Jun. 08, 2019 Rise Set
Actual Time 5:32 AM CDT 7:54 PM CDT
Civil Twilight 5:03 AM CDT 8:23 PM CDT
Nautical Twilight 4:28 AM CDT 8:58 PM CDT
Astronomical Twilight 3:49 AM CDT 9:37 PM CDT
Moon 10:53 AM CDT (6/8) 12:00 AM CDT (6/8)
Length of Visible Light 15h 19m
Length of Day
14h 21m
Waxing Crescent, 33% of the Moon is Illuminated
Jun 8
Waxing Crescent
Jun 10
First Quarter
Jun 17
Full
Jun 25
Last Quarter
Jul 2
New

Hourly Weather History & Observations

Time (CDT) Temp. Heat Index Dew Point Humidity Pressure Visibility Wind Dir Wind Speed Gust Speed Precip Events Conditions
12:14 AM 73.4 °F - 73.4 °F 100% 29.76 in 10.0 mi Calm Calm - N/A   Mostly Cloudy
12:51 AM 73.4 °F - - N/A% 29.75 in 10.0 mi Calm Calm - N/A   Overcast
12:56 AM 73.0 °F - - N/A% 29.74 in 10.0 mi SE 3.5 mph - N/A   Overcast
1:56 AM 73.0 °F - - N/A% 29.72 in 10.0 mi SE 3.5 mph - 0.00 in Rain Light Rain
2:26 AM 73.4 °F - - N/A% 29.73 in 10.0 mi South 3.5 mph - 0.00 in   Overcast
2:53 AM 73.4 °F - 73.4 °F 100% 29.73 in 10.0 mi SE 4.6 mph - 0.00 in   Overcast
2:56 AM 73.9 °F - 73.9 °F 100% 29.73 in 10.0 mi SE 3.5 mph - 0.00 in   Overcast
3:56 AM 73.0 °F - - N/A% 29.73 in 10.0 mi East 3.5 mph - N/A   Overcast
4:56 AM 73.0 °F - - N/A% 29.72 in 4.0 mi ESE 3.5 mph - 0.04 in Rain Light Rain
5:07 AM 71.6 °F - - N/A% 29.72 in 5.0 mi ESE 4.6 mph - 0.02 in Rain Light Rain
5:27 AM 71.6 °F - - N/A% 29.72 in 2.0 mi ESE 6.9 mph - 0.21 in Rain , Thunderstorm Heavy Rain
5:30 AM 71.6 °F - - N/A% 29.72 in 1.5 mi East 5.8 mph - 0.33 in Rain , Thunderstorm Heavy Rain
5:32 AM 71.6 °F - - N/A% 29.72 in 1.5 mi ESE 6.9 mph - 0.33 in Rain Heavy Rain
5:39 AM 71.6 °F - - N/A% 29.73 in 3.0 mi ENE 6.9 mph - 0.35 in Rain Light Rain
5:46 AM 71.6 °F - - N/A% 29.73 in 2.5 mi ENE 4.6 mph - 0.42 in Rain , Thunderstorm Light Thunderstorms and Rain
5:49 AM 71.6 °F - - N/A% 29.73 in 3.0 mi East 4.6 mph - 0.42 in Rain , Thunderstorm Light Thunderstorms and Rain
5:56 AM 72.0 °F - - N/A% 29.73 in 8.0 mi South 3.5 mph - 0.42 in Rain , Thunderstorm Light Rain
6:12 AM 71.6 °F - - N/A% 29.75 in 6.0 mi WNW 5.8 mph - 0.03 in Rain , Thunderstorm Thunderstorms and Rain
6:41 AM 71.6 °F - - N/A% 29.76 in 2.0 mi Variable 3.5 mph - 0.10 in Rain Light Rain
6:48 AM 71.6 °F - - N/A% 29.75 in 1.2 mi ESE 5.8 mph - 0.15 in Rain Rain
6:52 AM 71.6 °F - - N/A% 29.75 in 3.0 mi East 5.8 mph - 0.15 in Rain Light Rain
6:56 AM 71.1 °F - - N/A% 29.75 in 8.0 mi SE 5.8 mph - 0.15 in Rain Light Rain
7:34 AM 71.6 °F - - N/A% 29.75 in 10.0 mi NNW 3.5 mph - 0.01 in   Overcast
7:56 AM 72.0 °F - - N/A% 29.76 in 10.0 mi North 3.5 mph - 0.01 in   Overcast
8:04 AM 73.4 °F - - N/A% 29.76 in 10.0 mi East 4.6 mph - N/A   Overcast
8:44 AM 73.4 °F - - N/A% 29.76 in 10.0 mi NE 5.8 mph - N/A   Overcast
8:56 AM 73.0 °F - - N/A% 29.75 in 10.0 mi ENE 5.8 mph - N/A   Overcast
9:32 AM 73.4 °F - - N/A% 29.76 in 8.0 mi ESE 5.8 mph - 0.00 in Rain Light Rain
9:38 AM 71.6 °F - - N/A% 29.76 in 1.8 mi SSE 6.9 mph - 0.15 in Rain Heavy Rain
9:47 AM 71.6 °F - - N/A% 29.76 in 2.0 mi SE 4.6 mph - 0.24 in Rain Light Rain
9:52 AM 71.6 °F - - N/A% 29.76 in 10.0 mi SE 3.5 mph - 0.24 in Rain Light Rain
9:56 AM 72.0 °F - - N/A% 29.75 in 10.0 mi Calm Calm - 0.24 in Rain Light Rain
10:44 AM 71.6 °F - - N/A% 29.77 in 10.0 mi ENE 4.6 mph - 0.03 in Rain Light Rain
10:56 AM 72.0 °F - - N/A% 29.78 in 10.0 mi Calm Calm - 0.03 in Rain Light Rain
11:08 AM 71.6 °F - - N/A% 29.78 in 10.0 mi ESE 3.5 mph - N/A   Mostly Cloudy
11:27 AM 73.4 °F - - N/A% 29.78 in 10.0 mi Calm Calm - N/A   Overcast
11:56 AM 73.0 °F - - N/A% 29.77 in 9.0 mi NNW 3.5 mph - 0.11 in Rain Light Rain
12:04 PM 73.4 °F - - N/A% 29.77 in 10.0 mi Calm Calm - 0.01 in Rain Rain
12:11 PM 73.4 °F - - N/A% 29.77 in 8.0 mi Calm Calm - 0.03 in Rain Rain
12:56 PM 75.0 °F - 75.0 °F 100% 29.76 in 10.0 mi Calm Calm - 0.04 in Rain Light Rain
1:43 PM 75.2 °F - 75.2 °F 100% 29.76 in 10.0 mi SSW 3.5 mph - 0.01 in   Mostly Cloudy
1:56 PM 75.9 °F - 75.9 °F 100% 29.76 in 10.0 mi West 3.5 mph - 0.01 in   Mostly Cloudy
2:15 PM 78.8 °F - 75.2 °F 89% 29.76 in 10.0 mi SW 4.6 mph - N/A   Mostly Cloudy
2:23 PM 78.8 °F - 75.2 °F 89% 29.76 in 10.0 mi Variable 3.5 mph - N/A   Mostly Cloudy
2:56 PM 79.0 °F - 75.0 °F 88% 29.74 in 10.0 mi WSW 4.6 mph - N/A   Scattered Clouds
3:56 PM 80.1 °F 83.8 °F 72.0 °F 76% 29.73 in 10.0 mi Calm Calm - N/A   Scattered Clouds
4:56 PM 80.1 °F 84.2 °F 73.0 °F 79% 29.74 in 10.0 mi SSE 5.8 mph - N/A   Mostly Cloudy
5:56 PM 80.1 °F 84.5 °F 73.9 °F 81% 29.75 in 10.0 mi SSE 4.6 mph - N/A   Clear
6:56 PM 79.0 °F - 75.0 °F 88% 29.77 in 10.0 mi SSE 3.5 mph - 0.00 in Rain Light Rain
7:13 PM 75.2 °F - 75.2 °F 100% 29.77 in 10.0 mi West 4.6 mph - 0.00 in Rain Light Rain
7:56 PM 75.0 °F - 75.0 °F 100% 29.78 in 6.0 mi South 6.9 mph - 0.06 in Rain Rain
8:09 PM 73.4 °F - 73.4 °F 100% 29.77 in 7.0 mi ESE 5.8 mph - 0.03 in Rain Light Rain
8:56 PM 72.0 °F - - N/A% 29.78 in 10.0 mi North 3.5 mph - 0.04 in   Clear
9:56 PM 71.1 °F - - N/A% 29.81 in 10.0 mi Calm Calm - N/A   Partly Cloudy
10:56 PM 70.0 °F - - N/A% 29.82 in 8.0 mi Calm Calm - N/A   Clear
11:56 PM 70.0 °F - - N/A% 29.82 in 8.0 mi NE 3.5 mph - N/A   Clear